Weather History for KLXN - May, 2013

Change the Weather History Date:

Thursday, May 9, 2013

  Actual Average Record
Temperature  
Mean Temperature 54 °F -  
Max Temperature 61 °F 67 °F 93 °F (2011)
Min Temperature 46 °F 43 °F 28 °F (1997)
Degree Days  
Heating Degree Days 12    
Growing Degree Days 4 (Base 50)    
Moisture  
Dew Point 50 °F    
Average Humidity 80    
Maximum Humidity 91    
Minimum Humidity 70    
Precipitation  
Precipitation 0.00 in - - ()
Sea Level Pressure  
Sea Level Pressure 30.04 in    
Wind  
Wind Speed 11 mph (North)    
Max Wind Speed 21 mph    
Max Gust Speed 26 mph    
Visibility 10 miles    
Events Rain    
Averages and records for this station are not official NWS values.
T = Trace of Precipitation, MM = Missing Value Source: NWS Daily Summary

Daily Weather History Graph

Daily Weather History Graph

Search for Another Location

Airport or City:

Trip Planner

Search our weather history database for the weather conditions in past years. The results will help you decide how hot, cold, wet, or windy it might be!

Date:

Astronomy

May. 09, 2013 Rise Set
Actual Time 6:27 AM CDT 8:43 PM CDT
Civil Twilight 5:57 AM CDT 9:14 PM CDT
Nautical Twilight 5:19 AM CDT 9:52 PM CDT
Astronomical Twilight 4:38 AM CDT 10:34 PM CDT
Moon 6:13 AM CDT (5/9) 8:40 PM CDT (5/9)
Length of Visible Light 15h 17m
Length of Day
14h 16m
Waning Crescent, 0% of the Moon is Illuminated
May 9
Waning Crescent
May 9
New
May 17
First Quarter
May 24
Full
May 31
Last Quarter

Hourly Weather History & Observations

Time (CDT) Temp. Windchill Dew Point Humidity Pressure Visibility Wind Dir Wind Speed Gust Speed Precip Events Conditions
12:15 AM 52.9 °F - 48.7 °F 86% 29.97 in 10.0 mi North 6.9 mph - N/A   Clear
12:35 AM 52.3 °F - 49.3 °F 89% 29.96 in 10.0 mi Calm Calm - N/A   Clear
12:55 AM 52.7 °F - 49.3 °F 88% 29.96 in 7.0 mi North 8.1 mph - N/A   Clear
1:35 AM 55.0 °F - 46.6 °F 73% 29.96 in 10.0 mi NNE 9.2 mph - N/A   Clear
1:55 AM 54.9 °F - 46.4 °F 73% 29.95 in 10.0 mi North 11.5 mph - N/A   Clear
2:15 AM 53.6 °F - 46.4 °F 77% 29.95 in 10.0 mi North 11.5 mph - N/A   Clear
2:35 AM 54.0 °F - 46.4 °F 76% 29.95 in 10.0 mi North 11.5 mph - N/A   Clear
2:55 AM 52.9 °F - 46.4 °F 79% 29.95 in 10.0 mi North 10.4 mph - N/A   Clear
3:15 AM 51.4 °F - 46.2 °F 82% 29.94 in 10.0 mi North 9.2 mph - N/A   Clear
3:35 AM 50.5 °F - 46.0 °F 85% 29.95 in 10.0 mi North 5.8 mph - N/A   Clear
3:55 AM 50.0 °F - 45.7 °F 85% 29.96 in 10.0 mi West 4.6 mph - N/A   Clear
4:35 AM 48.0 °F - 44.6 °F 88% 29.97 in 10.0 mi NNW 5.8 mph - N/A   Scattered Clouds
4:55 AM 50.2 °F - 47.5 °F 90% 29.98 in 10.0 mi North 9.2 mph - N/A   Overcast
5:15 AM 51.6 °F - 48.4 °F 89% 29.98 in 10.0 mi North 10.4 mph - N/A   Mostly Cloudy
6:15 AM 52.7 °F - 49.5 °F 89% 29.99 in 10.0 mi NNW 9.2 mph - N/A   Overcast
6:35 AM 52.9 °F - 49.6 °F 89% 29.99 in 10.0 mi NNW 9.2 mph - N/A   Overcast
6:55 AM 53.4 °F - 50.0 °F 88% 29.99 in 10.0 mi North 10.4 mph - N/A   Overcast
7:55 AM 54.7 °F - 50.9 °F 87% 29.99 in 10.0 mi North 15.0 mph - N/A   Mostly Cloudy
8:35 AM 55.9 °F - 51.4 °F 85% 30.00 in 10.0 mi North 17.3 mph 20.7 mph N/A   Overcast
9:55 AM 60.1 °F - 52.0 °F 75% 30.02 in 10.0 mi North 17.3 mph 23.0 mph N/A   Scattered Clouds
10:35 AM 59.7 °F - 51.1 °F 73% 30.04 in 10.0 mi North 18.4 mph 26.5 mph N/A   Overcast
10:55 AM 60.3 °F - 51.3 °F 72% 30.04 in 10.0 mi North 19.6 mph - N/A   Overcast
11:15 AM 60.3 °F - 52.0 °F 74% 30.05 in 10.0 mi North 17.3 mph - N/A   Overcast
11:35 AM 60.4 °F - 52.0 °F 74% 30.05 in 10.0 mi NNE 15.0 mph - N/A   Overcast
12:15 PM 60.6 °F - 52.0 °F 73% 30.06 in 10.0 mi NNW 17.3 mph - N/A   Overcast
12:55 PM 58.5 °F - 53.8 °F 84% 30.06 in 10.0 mi North 20.7 mph 25.3 mph N/A Rain Light Rain
1:15 PM 57.2 °F - 53.2 °F 87% 30.06 in 5.0 mi North 17.3 mph - N/A Rain Light Rain
1:35 PM 56.8 °F - 53.1 °F 87% 30.06 in 7.0 mi North 15.0 mph - N/A   Light Drizzle
1:55 PM 59.0 °F - 52.3 °F 79% 30.07 in 10.0 mi North 18.4 mph 24.2 mph N/A   Overcast
2:15 PM 59.0 °F - 52.0 °F 78% 30.07 in 10.0 mi North 19.6 mph 25.3 mph N/A   Overcast
2:35 PM 60.1 °F - 51.8 °F 74% 30.07 in 10.0 mi North 19.6 mph 23.0 mph N/A   Overcast
2:55 PM 59.0 °F - 51.6 °F 76% 30.07 in 10.0 mi NNE 19.6 mph - N/A   Overcast
3:15 PM 59.2 °F - 51.4 °F 75% 30.07 in 10.0 mi NNE 19.6 mph 25.3 mph N/A   Overcast
3:35 PM 58.6 °F - 52.0 °F 79% 30.07 in 10.0 mi NNE 17.3 mph 25.3 mph N/A   Overcast
3:55 PM 58.1 °F - 50.9 °F 77% 30.07 in 10.0 mi North 20.7 mph 26.5 mph N/A   Overcast
4:15 PM 58.8 °F - 50.9 °F 75% 30.06 in 10.0 mi NNE 18.4 mph 26.5 mph N/A   Overcast
4:35 PM 58.1 °F - 50.9 °F 77% 30.06 in 10.0 mi NNE 18.4 mph - N/A   Overcast
4:55 PM 58.1 °F - 51.4 °F 78% 30.06 in 10.0 mi NNE 15.0 mph 24.2 mph N/A   Overcast
5:15 PM 57.7 °F - 51.1 °F 78% 30.06 in 10.0 mi NNE 18.4 mph 25.3 mph N/A   Overcast
5:35 PM 58.6 °F - 51.6 °F 77% 30.06 in 10.0 mi NNE 15.0 mph 19.6 mph N/A   Overcast
5:55 PM 58.6 °F - 51.1 °F 76% 30.06 in 10.0 mi NNE 13.8 mph - N/A   Overcast
6:15 PM 58.6 °F - 50.7 °F 75% 30.06 in 10.0 mi NNE 13.8 mph - N/A   Overcast
6:35 PM 58.6 °F - 51.1 °F 76% 30.06 in 10.0 mi North 9.2 mph - N/A   Overcast
6:55 PM 59.0 °F - 49.1 °F 70% 30.07 in 10.0 mi NNE 16.1 mph 19.6 mph N/A   Overcast
7:15 PM 59.0 °F - 50.0 °F 72% 30.07 in 10.0 mi NNE 10.4 mph - N/A   Overcast
7:35 PM 58.8 °F - 50.0 °F 73% 30.07 in 10.0 mi NNE 10.4 mph - N/A   Overcast
7:55 PM 58.5 °F - 50.0 °F 73% 30.08 in 10.0 mi NNE 6.9 mph - N/A   Overcast
8:15 PM 58.3 °F - 49.5 °F 72% 30.09 in 10.0 mi NNE 8.1 mph - N/A   Overcast
8:35 PM 57.6 °F - 50.0 °F 76% 30.09 in 10.0 mi NE 6.9 mph - N/A   Overcast
8:55 PM 57.2 °F - 50.0 °F 77% 30.09 in 10.0 mi NE 6.9 mph - N/A   Overcast
9:15 PM 56.3 °F - 50.0 °F 79% 30.09 in 10.0 mi NNE 6.9 mph - N/A   Overcast
9:35 PM 55.0 °F - 49.5 °F 81% 30.09 in 10.0 mi NNE 8.1 mph - N/A   Mostly Cloudy
9:55 PM 53.6 °F - 49.1 °F 85% 30.10 in 10.0 mi NNE 8.1 mph - N/A   Scattered Clouds
10:15 PM 52.7 °F - 48.4 °F 85% 30.11 in 10.0 mi NNE 5.8 mph - N/A   Clear
10:55 PM 49.8 °F - 46.8 °F 89% 30.11 in 10.0 mi North 4.6 mph - N/A   Clear
11:15 PM 47.3 °F - 44.6 °F 90% 30.11 in 10.0 mi North 4.6 mph - N/A   Clear
11:35 PM 46.4 °F 43.5 °F 43.9 °F 91% 30.11 in 10.0 mi NNW 5.8 mph - N/A   Clear